Year,Month,Day,Hour,Minute,Value (Times are PST for temperature in C)
2016,04,09,00,00,10.70
2016,04,09,00,01,10.70
2016,04,09,00,02,10.70
2016,04,09,00,03,10.60
2016,04,09,00,04,10.60
2016,04,09,00,05,10.60
2016,04,09,00,06,10.50
2016,04,09,00,07,10.50
2016,04,09,00,08,10.40
2016,04,09,00,09,10.40
2016,04,09,00,10,10.40
2016,04,09,00,11,10.40
2016,04,09,00,12,10.30
2016,04,09,00,13,10.30
2016,04,09,00,14,10.30
2016,04,09,00,15,10.30
2016,04,09,00,16,10.30
2016,04,09,00,17,10.30
2016,04,09,00,18,10.30
2016,04,09,00,19,10.30
2016,04,09,00,20,10.30
2016,04,09,00,21,10.30
2016,04,09,00,22,10.20
2016,04,09,00,23,10.20
2016,04,09,00,24,10.20
2016,04,09,00,25,10.20
2016,04,09,00,26,10.20
2016,04,09,00,27,10.30
2016,04,09,00,28,10.30
2016,04,09,00,29,10.30
2016,04,09,00,30,10.30
2016,04,09,00,31,10.30
2016,04,09,00,32,10.20
2016,04,09,00,33,10.20
2016,04,09,00,34,10.20
2016,04,09,00,35,10.20
2016,04,09,00,36,10.10
2016,04,09,00,37,10.10
2016,04,09,00,38,10.00
2016,04,09,00,39,10.00
2016,04,09,00,40,10.00
2016,04,09,00,41,10.00
2016,04,09,00,42,9.90
2016,04,09,00,43,9.90
2016,04,09,00,44,9.90
2016,04,09,00,45,9.90
2016,04,09,00,46,9.90
2016,04,09,00,47,9.80
2016,04,09,00,48,9.80
2016,04,09,00,49,9.80
2016,04,09,00,50,9.80
2016,04,09,00,51,9.80
2016,04,09,00,52,9.80
2016,04,09,00,53,9.80
2016,04,09,00,54,9.80
2016,04,09,00,55,9.80
2016,04,09,00,56,9.80
2016,04,09,00,57,9.80
2016,04,09,00,58,9.80
2016,04,09,00,59,9.80
2016,04,09,01,00,9.70
2016,04,09,01,01,9.70
2016,04,09,01,02,9.70
2016,04,09,01,03,9.70
2016,04,09,01,04,9.70
2016,04,09,01,05,9.60
2016,04,09,01,06,9.60
2016,04,09,01,07,9.60
2016,04,09,01,08,9.50
2016,04,09,01,09,9.50
2016,04,09,01,10,9.50
2016,04,09,01,11,9.50
2016,04,09,01,12,9.50
2016,04,09,01,13,9.50
2016,04,09,01,14,9.50
2016,04,09,01,15,9.50
2016,04,09,01,16,9.50
2016,04,09,01,17,9.40
2016,04,09,01,18,9.40
2016,04,09,01,19,9.40
2016,04,09,01,20,9.40
2016,04,09,01,21,9.30
2016,04,09,01,22,9.30
2016,04,09,01,23,9.30
2016,04,09,01,24,9.30
2016,04,09,01,25,9.30
2016,04,09,01,26,9.30
2016,04,09,01,27,9.30
2016,04,09,01,28,9.30
2016,04,09,01,29,9.20
2016,04,09,01,30,9.20
2016,04,09,01,31,9.20
2016,04,09,01,32,9.20
2016,04,09,01,33,9.20
2016,04,09,01,34,9.20
2016,04,09,01,35,9.20
2016,04,09,01,36,9.20
2016,04,09,01,37,9.20
2016,04,09,01,38,9.20
2016,04,09,01,39,9.20
2016,04,09,01,40,9.10
2016,04,09,01,41,9.10
2016,04,09,01,42,9.10
2016,04,09,01,43,9.10
2016,04,09,01,44,9.10
2016,04,09,01,45,9.10
2016,04,09,01,46,9.10
2016,04,09,01,47,9.10
2016,04,09,01,48,9.10
2016,04,09,01,49,9.10
2016,04,09,01,50,9.10
2016,04,09,01,51,9.10
2016,04,09,01,52,9.10
2016,04,09,01,53,9.10
2016,04,09,01,54,9.10
2016,04,09,01,55,9.10
2016,04,09,01,56,9.10
2016,04,09,01,57,9.10
2016,04,09,01,58,9.10
2016,04,09,01,59,9.10
2016,04,09,02,00,9.10
2016,04,09,02,01,9.00
2016,04,09,02,02,9.00
2016,04,09,02,03,9.00
2016,04,09,02,04,8.90
2016,04,09,02,05,8.90
2016,04,09,02,06,8.90
2016,04,09,02,07,8.90
2016,04,09,02,08,8.90
2016,04,09,02,09,8.80
2016,04,09,02,10,8.80
2016,04,09,02,11,8.80
2016,04,09,02,12,8.80
2016,04,09,02,13,8.80
2016,04,09,02,14,8.80
2016,04,09,02,15,8.80
2016,04,09,02,16,8.80
2016,04,09,02,17,8.80
2016,04,09,02,18,8.80
2016,04,09,02,19,8.80
2016,04,09,02,20,8.80
2016,04,09,02,21,8.80
2016,04,09,02,22,8.70
2016,04,09,02,23,8.70
2016,04,09,02,24,8.70
2016,04,09,02,25,8.70
2016,04,09,02,26,8.70
2016,04,09,02,27,8.70
2016,04,09,02,28,8.70
2016,04,09,02,29,8.60
2016,04,09,02,30,8.70
2016,04,09,02,31,8.60
2016,04,09,02,32,8.60
2016,04,09,02,33,8.60
2016,04,09,02,34,8.60
2016,04,09,02,35,8.60
2016,04,09,02,36,8.60
2016,04,09,02,37,8.60
2016,04,09,02,38,8.60
2016,04,09,02,39,8.60
2016,04,09,02,40,8.50
2016,04,09,02,41,8.50
2016,04,09,02,42,8.50
2016,04,09,02,43,8.40
2016,04,09,02,44,8.40
2016,04,09,02,45,8.40
2016,04,09,02,46,8.40
2016,04,09,02,47,8.40
2016,04,09,02,48,8.40
2016,04,09,02,49,8.40
2016,04,09,02,50,8.40
2016,04,09,02,51,8.30
2016,04,09,02,52,8.30
2016,04,09,02,53,8.40
2016,04,09,02,54,8.40
2016,04,09,02,55,8.40
2016,04,09,02,56,8.40
2016,04,09,02,57,8.30
2016,04,09,02,58,8.30
2016,04,09,02,59,8.30
2016,04,09,03,00,8.30
2016,04,09,03,01,8.30
2016,04,09,03,02,8.30
2016,04,09,03,06,8.20
2016,04,09,03,07,8.20
2016,04,09,03,08,8.20
2016,04,09,03,09,8.20
2016,04,09,03,10,8.20
2016,04,09,03,11,8.20
2016,04,09,03,12,8.20
2016,04,09,03,13,8.20
2016,04,09,03,14,8.20
2016,04,09,03,15,8.20
2016,04,09,03,16,8.20
2016,04,09,03,17,8.20
2016,04,09,03,18,8.20
2016,04,09,03,19,8.20
2016,04,09,03,20,8.20
2016,04,09,03,21,8.10
2016,04,09,03,22,8.10
2016,04,09,03,23,8.10
2016,04,09,03,24,8.10
2016,04,09,03,25,8.10
2016,04,09,03,26,8.10
2016,04,09,03,27,8.00
2016,04,09,03,28,8.00
2016,04,09,03,29,8.00
2016,04,09,03,30,8.00
2016,04,09,03,31,7.90
2016,04,09,03,32,7.90
2016,04,09,03,33,7.90
2016,04,09,03,34,7.90
2016,04,09,03,35,7.90
2016,04,09,03,36,7.90
2016,04,09,03,37,7.80
2016,04,09,03,38,7.80
2016,04,09,03,39,7.80
2016,04,09,03,40,7.80
2016,04,09,03,41,7.80
2016,04,09,03,42,7.80
2016,04,09,03,43,7.80
2016,04,09,03,44,7.80
2016,04,09,03,45,7.80
2016,04,09,03,46,7.80
2016,04,09,03,47,7.80
2016,04,09,03,48,7.80
2016,04,09,03,49,7.80
2016,04,09,03,50,7.80
2016,04,09,03,51,7.80
2016,04,09,03,52,7.80
2016,04,09,03,53,7.80
2016,04,09,03,54,7.80
2016,04,09,03,55,7.80
2016,04,09,03,56,7.70
2016,04,09,03,57,7.70
2016,04,09,03,58,7.70
2016,04,09,03,59,7.70
2016,04,09,04,00,7.70
2016,04,09,04,01,7.70
2016,04,09,04,02,7.70
2016,04,09,04,03,7.70
2016,04,09,04,04,7.70
2016,04,09,04,05,7.70
2016,04,09,04,06,7.70
2016,04,09,04,07,7.60
2016,04,09,04,08,7.60
2016,04,09,04,09,7.60
2016,04,09,04,10,7.60
2016,04,09,04,11,7.60
2016,04,09,04,12,7.60
2016,04,09,04,13,7.50
2016,04,09,04,14,7.50
2016,04,09,04,15,7.50
2016,04,09,04,16,7.50
2016,04,09,04,17,7.40
2016,04,09,04,18,7.40
2016,04,09,04,19,7.40
2016,04,09,04,20,7.40
2016,04,09,04,21,7.40
2016,04,09,04,22,7.40
2016,04,09,04,23,7.40
2016,04,09,04,24,7.40
2016,04,09,04,25,7.40
2016,04,09,04,26,7.40
2016,04,09,04,27,7.30
2016,04,09,04,28,7.30
2016,04,09,04,29,7.30
2016,04,09,04,30,7.30
2016,04,09,04,31,7.30
2016,04,09,04,32,7.30
2016,04,09,04,33,7.20
2016,04,09,04,34,7.20
2016,04,09,04,35,7.20
2016,04,09,04,36,7.20
2016,04,09,04,37,7.20
2016,04,09,04,38,7.20
2016,04,09,04,39,7.20
2016,04,09,04,40,7.10
2016,04,09,04,41,7.10
2016,04,09,04,42,7.10
2016,04,09,04,43,7.10
2016,04,09,04,44,7.10
2016,04,09,04,45,7.10
2016,04,09,04,46,7.10
2016,04,09,04,47,7.10
2016,04,09,04,48,7.10
2016,04,09,04,49,7.10
2016,04,09,04,50,7.10
2016,04,09,04,51,7.10
2016,04,09,04,52,7.10
2016,04,09,04,53,7.00
2016,04,09,04,54,7.00
2016,04,09,04,55,7.00
2016,04,09,04,56,7.00
2016,04,09,04,57,7.00
2016,04,09,04,58,7.00
2016,04,09,04,59,7.00
2016,04,09,05,00,6.90
2016,04,09,05,01,6.90
2016,04,09,05,02,6.90
2016,04,09,05,03,6.90
2016,04,09,05,04,6.90
2016,04,09,05,05,6.90
2016,04,09,05,06,6.90
2016,04,09,05,07,6.90
2016,04,09,05,08,6.90
2016,04,09,05,09,6.90
2016,04,09,05,10,6.90
2016,04,09,05,11,6.90
2016,04,09,05,12,6.90
2016,04,09,05,13,6.90
2016,04,09,05,14,6.90
2016,04,09,05,15,6.90
2016,04,09,05,16,6.90
2016,04,09,05,17,6.90
2016,04,09,05,18,6.90
2016,04,09,05,19,6.90
2016,04,09,05,20,6.90
2016,04,09,05,21,6.90
2016,04,09,05,22,6.90
2016,04,09,05,23,6.90
2016,04,09,05,24,6.90
2016,04,09,05,25,6.90
2016,04,09,05,26,6.90
2016,04,09,05,27,6.90
2016,04,09,05,28,6.90
2016,04,09,05,29,6.90
2016,04,09,05,30,6.90
2016,04,09,05,31,6.90
2016,04,09,05,32,6.80
2016,04,09,05,33,6.80
2016,04,09,05,34,6.80
2016,04,09,05,35,6.80
2016,04,09,05,36,6.80
2016,04,09,05,37,6.80
2016,04,09,05,38,6.80
2016,04,09,05,39,6.80
2016,04,09,05,40,6.80
2016,04,09,05,41,6.70
2016,04,09,05,42,6.70
2016,04,09,05,43,6.70
2016,04,09,05,44,6.70
2016,04,09,05,45,6.70
2016,04,09,05,46,6.70
2016,04,09,05,47,6.70
2016,04,09,05,48,6.70
2016,04,09,05,49,6.70
2016,04,09,05,50,6.70
2016,04,09,05,51,6.70
2016,04,09,05,52,6.60
2016,04,09,05,53,6.60
2016,04,09,05,54,6.60
2016,04,09,05,55,6.60
2016,04,09,05,56,6.60
2016,04,09,05,57,6.60
2016,04,09,05,58,6.60
2016,04,09,05,59,6.60
2016,04,09,06,00,6.60
2016,04,09,06,01,6.60
2016,04,09,06,02,6.60
2016,04,09,06,03,6.60
2016,04,09,06,04,6.60
2016,04,09,06,05,6.60
2016,04,09,06,06,6.60
2016,04,09,06,07,6.60
2016,04,09,06,08,6.50
2016,04,09,06,09,6.50
2016,04,09,06,10,6.50
2016,04,09,06,11,6.50
2016,04,09,06,12,6.50
2016,04,09,06,13,6.40
2016,04,09,06,14,6.40
2016,04,09,06,15,6.40
2016,04,09,06,16,6.40
2016,04,09,06,17,6.40
2016,04,09,06,18,6.40
2016,04,09,06,19,6.40
2016,04,09,06,20,6.40
2016,04,09,06,21,6.40
2016,04,09,06,22,6.40
2016,04,09,06,23,6.40
2016,04,09,06,24,6.40
2016,04,09,06,25,6.40
2016,04,09,06,26,6.40
2016,04,09,06,27,6.40
2016,04,09,06,28,6.40
2016,04,09,06,29,6.40
2016,04,09,06,30,6.40
2016,04,09,06,31,6.40
2016,04,09,06,32,6.40
2016,04,09,06,33,6.40
2016,04,09,06,34,6.40
2016,04,09,06,35,6.30
2016,04,09,06,36,6.30
2016,04,09,06,37,6.30
2016,04,09,06,38,6.30
2016,04,09,06,39,6.30
2016,04,09,06,40,6.30
2016,04,09,06,41,6.30
2016,04,09,06,42,6.30
2016,04,09,06,43,6.30
2016,04,09,06,44,6.30
2016,04,09,06,45,6.30
2016,04,09,06,46,6.30
2016,04,09,06,47,6.30
2016,04,09,06,48,6.30
2016,04,09,06,49,6.30
2016,04,09,06,50,6.20
2016,04,09,06,51,6.20
2016,04,09,06,52,6.20
2016,04,09,06,53,6.20
2016,04,09,06,54,6.30
2016,04,09,06,55,6.30
2016,04,09,06,56,6.30
2016,04,09,06,57,6.30
2016,04,09,06,58,6.30
2016,04,09,06,59,6.30
2016,04,09,07,00,6.30
2016,04,09,07,01,6.30
2016,04,09,07,02,6.30
2016,04,09,07,03,6.30
2016,04,09,07,04,6.30
2016,04,09,07,05,6.40
2016,04,09,07,06,6.40
2016,04,09,07,07,6.40
2016,04,09,07,08,6.40
2016,04,09,07,09,6.30
2016,04,09,07,10,6.30
2016,04,09,07,11,6.30
2016,04,09,07,12,6.30
2016,04,09,07,13,6.40
2016,04,09,07,14,6.40
2016,04,09,07,15,6.40
2016,04,09,07,16,6.40
2016,04,09,07,17,6.40
2016,04,09,07,18,6.40
2016,04,09,07,19,6.40
2016,04,09,07,20,6.40
2016,04,09,07,21,6.40
2016,04,09,07,22,6.40
2016,04,09,07,23,6.50
2016,04,09,07,24,6.50
2016,04,09,07,25,6.50
2016,04,09,07,26,6.50
2016,04,09,07,27,6.50
2016,04,09,07,28,6.50
2016,04,09,07,29,6.50
2016,04,09,07,30,6.50
2016,04,09,07,31,6.50
2016,04,09,07,32,6.50
2016,04,09,07,33,6.50
2016,04,09,07,34,6.50
2016,04,09,07,35,6.50
2016,04,09,07,36,6.60
2016,04,09,07,37,6.60
2016,04,09,07,38,6.60
2016,04,09,07,39,6.60
2016,04,09,07,40,6.60
2016,04,09,07,41,6.60
2016,04,09,07,42,6.60
2016,04,09,07,43,6.60
2016,04,09,07,44,6.60
2016,04,09,07,45,6.60
2016,04,09,07,46,6.60
2016,04,09,07,47,6.60
2016,04,09,07,48,6.60
2016,04,09,07,49,6.60
2016,04,09,07,50,6.60
2016,04,09,07,51,6.60
2016,04,09,07,52,6.60
2016,04,09,07,53,6.60
2016,04,09,07,54,6.70
2016,04,09,07,55,6.70
2016,04,09,07,56,6.80
2016,04,09,07,57,6.80
2016,04,09,07,58,6.90
2016,04,09,07,59,7.00
2016,04,09,08,00,7.10
2016,04,09,08,01,7.20
2016,04,09,08,02,7.20
2016,04,09,08,03,7.30
2016,04,09,08,04,7.30
2016,04,09,08,05,7.40
2016,04,09,08,06,7.40
2016,04,09,08,07,7.40
2016,04,09,08,08,7.50
2016,04,09,08,09,7.60
2016,04,09,08,10,7.70
2016,04,09,08,11,7.80
2016,04,09,08,12,7.90
2016,04,09,08,13,7.90
2016,04,09,08,14,8.00
2016,04,09,08,15,8.10
2016,04,09,08,16,8.10
2016,04,09,08,17,8.20
2016,04,09,08,18,8.20
2016,04,09,08,19,8.20
2016,04,09,08,20,8.30
2016,04,09,08,21,8.30
2016,04,09,08,22,8.40
2016,04,09,08,23,8.40
2016,04,09,08,24,8.50
2016,04,09,08,25,8.60
2016,04,09,08,26,8.60
2016,04,09,08,27,8.70
2016,04,09,08,28,8.70
2016,04,09,08,29,8.80
2016,04,09,08,30,8.80
2016,04,09,08,31,8.90
2016,04,09,08,32,9.00
2016,04,09,08,33,9.00
2016,04,09,08,34,9.10
2016,04,09,08,35,9.10
2016,04,09,08,36,9.20
2016,04,09,08,37,9.20
2016,04,09,08,38,9.30
2016,04,09,08,39,9.30
2016,04,09,08,40,9.30
2016,04,09,08,41,9.30
2016,04,09,08,42,9.30
2016,04,09,08,43,9.30
2016,04,09,08,44,9.30
2016,04,09,08,45,9.30
2016,04,09,08,46,9.30
2016,04,09,08,47,9.30
2016,04,09,08,48,9.40
2016,04,09,08,49,9.40
2016,04,09,08,50,9.40
2016,04,09,08,51,9.40
2016,04,09,08,52,9.40
2016,04,09,08,53,9.40
2016,04,09,08,54,9.40
2016,04,09,08,55,9.40
2016,04,09,08,56,9.40
2016,04,09,08,57,9.50
2016,04,09,08,58,9.50
2016,04,09,08,59,9.60
2016,04,09,09,00,9.60
2016,04,09,09,01,9.70
2016,04,09,09,02,9.70
2016,04,09,09,03,9.70
2016,04,09,09,04,9.70
2016,04,09,09,05,9.80
2016,04,09,09,06,9.80
2016,04,09,09,07,9.80
2016,04,09,09,08,9.80
2016,04,09,09,09,9.90
2016,04,09,09,10,9.90
2016,04,09,09,11,10.00
2016,04,09,09,12,10.00
2016,04,09,09,13,10.10
2016,04,09,09,14,10.10
2016,04,09,09,15,10.20
2016,04,09,09,16,10.20
2016,04,09,09,17,10.20
2016,04,09,09,18,10.20
2016,04,09,09,19,10.30
2016,04,09,09,20,10.30
2016,04,09,09,21,10.30
2016,04,09,09,22,10.40
2016,04,09,09,23,10.50
2016,04,09,09,24,10.60
2016,04,09,09,25,10.70
2016,04,09,09,26,10.70
2016,04,09,09,27,10.70
2016,04,09,09,28,10.80
2016,04,09,09,29,10.90
2016,04,09,09,30,11.00
2016,04,09,09,31,11.00
2016,04,09,09,32,11.10
2016,04,09,09,33,11.10
2016,04,09,09,34,11.10
2016,04,09,09,35,11.10
2016,04,09,09,36,11.10
2016,04,09,09,37,11.00
2016,04,09,09,38,11.00
2016,04,09,09,39,10.90
2016,04,09,09,40,10.90
2016,04,09,09,41,10.90
2016,04,09,09,42,11.00
2016,04,09,09,43,11.00
2016,04,09,09,44,11.00
2016,04,09,09,45,11.10
2016,04,09,09,46,11.10
2016,04,09,09,47,11.10
2016,04,09,09,48,11.20
2016,04,09,09,49,11.20
2016,04,09,09,50,11.20
2016,04,09,09,51,11.30
2016,04,09,09,52,11.30
2016,04,09,09,53,11.30
2016,04,09,09,54,11.40
2016,04,09,09,55,11.40
2016,04,09,09,56,11.40
2016,04,09,09,57,11.50
2016,04,09,09,58,11.60
2016,04,09,09,59,11.60
2016,04,09,10,00,11.60
2016,04,09,10,01,11.60
2016,04,09,10,02,11.70
2016,04,09,10,03,11.70
2016,04,09,10,04,11.70
2016,04,09,10,05,11.80
2016,04,09,10,06,11.80
2016,04,09,10,07,11.90
2016,04,09,10,08,12.00
2016,04,09,10,09,12.00
2016,04,09,10,10,12.00
2016,04,09,10,11,12.10
2016,04,09,10,12,12.10
2016,04,09,10,13,12.20
2016,04,09,10,14,12.30
2016,04,09,10,15,12.40
2016,04,09,10,16,12.50
2016,04,09,10,17,12.70
2016,04,09,10,18,12.70
2016,04,09,10,19,12.70
2016,04,09,10,20,12.70
2016,04,09,10,21,12.80
2016,04,09,10,22,12.90
2016,04,09,10,23,13.00
2016,04,09,10,24,13.00
2016,04,09,10,25,13.10
2016,04,09,10,26,13.10
2016,04,09,10,27,13.10
2016,04,09,10,28,13.10
2016,04,09,10,29,13.20
2016,04,09,10,30,13.20
2016,04,09,10,31,13.20
2016,04,09,10,32,13.20
2016,04,09,10,33,13.20
2016,04,09,10,34,13.20
2016,04,09,10,35,13.20
2016,04,09,10,36,13.20
2016,04,09,10,37,13.20
2016,04,09,10,38,13.30
2016,04,09,10,39,13.30
2016,04,09,10,40,13.30
2016,04,09,10,41,13.40
2016,04,09,10,42,13.50
2016,04,09,10,43,13.60
2016,04,09,10,44,13.50
2016,04,09,10,45,13.50
2016,04,09,10,46,13.40
2016,04,09,10,47,13.40
2016,04,09,10,48,13.50
2016,04,09,10,49,13.50
2016,04,09,10,50,13.60
2016,04,09,10,51,13.60
2016,04,09,10,52,13.70
2016,04,09,10,53,13.80
2016,04,09,10,54,13.80
2016,04,09,10,55,13.80
2016,04,09,10,56,13.80
2016,04,09,10,57,13.70
2016,04,09,10,58,13.70
2016,04,09,10,59,13.80
2016,04,09,11,00,13.80
2016,04,09,11,01,13.80
2016,04,09,11,02,13.80
2016,04,09,11,03,13.90
2016,04,09,11,04,13.90
2016,04,09,11,05,14.00
2016,04,09,11,06,14.00
2016,04,09,11,07,14.10
2016,04,09,11,08,14.10
2016,04,09,11,09,14.10
2016,04,09,11,10,14.20
2016,04,09,11,11,14.20
2016,04,09,11,12,14.30
2016,04,09,11,13,14.30
2016,04,09,11,14,14.30
2016,04,09,11,15,14.30
2016,04,09,11,16,14.30
2016,04,09,11,17,14.40
2016,04,09,11,18,14.40
2016,04,09,11,19,14.40
2016,04,09,11,20,14.30
2016,04,09,11,21,14.30
2016,04,09,11,22,14.30
2016,04,09,11,23,14.30
2016,04,09,11,24,14.30
2016,04,09,11,25,14.30
2016,04,09,11,26,14.30
2016,04,09,11,27,14.30
2016,04,09,11,28,14.30
2016,04,09,11,29,14.40
2016,04,09,11,30,14.40
2016,04,09,11,31,14.50
2016,04,09,11,32,14.50
2016,04,09,11,33,14.50
2016,04,09,11,34,14.60
2016,04,09,11,35,14.60
2016,04,09,11,36,14.70
2016,04,09,11,37,14.70
2016,04,09,11,38,14.70
2016,04,09,11,39,14.80
2016,04,09,11,40,14.80
2016,04,09,11,41,14.80
2016,04,09,11,42,14.90
2016,04,09,11,43,14.90
2016,04,09,11,44,14.90
2016,04,09,11,45,14.90
2016,04,09,11,46,15.00
2016,04,09,11,47,15.10
2016,04,09,11,48,15.20
2016,04,09,11,49,15.20
2016,04,09,11,50,15.30
2016,04,09,11,51,15.30
2016,04,09,11,52,15.30
2016,04,09,11,53,15.30
2016,04,09,11,54,15.30
2016,04,09,11,55,15.40
2016,04,09,11,56,15.50
2016,04,09,11,57,15.60
2016,04,09,11,58,15.60
2016,04,09,11,59,15.60
2016,04,09,12,00,15.70
2016,04,09,12,01,15.60
2016,04,09,12,02,15.60
2016,04,09,12,03,15.50
2016,04,09,12,04,15.50
2016,04,09,12,05,15.60
2016,04,09,12,06,15.70
2016,04,09,12,07,15.70
2016,04,09,12,08,15.70
2016,04,09,12,09,15.70
2016,04,09,12,10,15.70
2016,04,09,12,11,15.80
2016,04,09,12,12,15.80
2016,04,09,12,13,15.90
2016,04,09,12,14,15.90
2016,04,09,12,15,15.90
2016,04,09,12,16,15.90
2016,04,09,12,17,15.90
2016,04,09,12,18,15.90
2016,04,09,12,19,15.90
2016,04,09,12,20,16.00
2016,04,09,12,21,16.00
2016,04,09,12,22,15.90
2016,04,09,12,23,15.90
2016,04,09,12,24,15.90
2016,04,09,12,25,16.00
2016,04,09,12,26,16.10
2016,04,09,12,27,16.10
2016,04,09,12,28,16.10
2016,04,09,12,29,16.10
2016,04,09,12,30,16.20
2016,04,09,12,31,16.20
2016,04,09,12,32,16.30
2016,04,09,12,33,16.30
2016,04,09,12,34,16.30
2016,04,09,12,35,16.30
2016,04,09,12,36,16.40
2016,04,09,12,37,16.40
2016,04,09,12,38,16.50
2016,04,09,12,39,16.40
2016,04,09,12,40,16.40
2016,04,09,12,41,16.50
2016,04,09,12,42,16.60
2016,04,09,12,43,16.70
2016,04,09,12,44,16.70
2016,04,09,12,45,16.70
2016,04,09,12,46,16.70
2016,04,09,12,47,16.80
2016,04,09,12,48,16.80
2016,04,09,12,49,16.80
2016,04,09,12,50,16.80
2016,04,09,12,51,16.90
2016,04,09,12,52,17.00
2016,04,09,12,53,17.10
2016,04,09,12,54,17.20
2016,04,09,12,55,17.30
2016,04,09,12,56,17.30
2016,04,09,12,57,17.30
2016,04,09,12,58,17.30
2016,04,09,12,59,17.30
2016,04,09,13,00,17.30
2016,04,09,13,01,17.20
2016,04,09,13,02,17.20
2016,04,09,13,03,17.20
2016,04,09,13,04,17.20
2016,04,09,13,05,17.30
2016,04,09,13,06,17.40
2016,04,09,13,07,17.40
2016,04,09,13,08,17.50
2016,04,09,13,09,17.50
2016,04,09,13,10,17.50
2016,04,09,13,11,17.60
2016,04,09,13,12,17.60
2016,04,09,13,13,17.60
2016,04,09,13,14,17.60
2016,04,09,13,15,17.50
2016,04,09,13,16,17.50
2016,04,09,13,17,17.60
2016,04,09,13,18,17.60
2016,04,09,13,19,17.60
2016,04,09,13,20,17.70
2016,04,09,13,21,17.80
2016,04,09,13,22,17.70
2016,04,09,13,23,17.70
2016,04,09,13,24,17.70
2016,04,09,13,25,17.70
2016,04,09,13,26,17.70
2016,04,09,13,27,17.80
2016,04,09,13,28,17.80
2016,04,09,13,29,17.80
2016,04,09,13,30,17.70
2016,04,09,13,31,17.70
2016,04,09,13,32,17.70
2016,04,09,13,33,17.80
2016,04,09,13,34,17.80
2016,04,09,13,35,17.90
2016,04,09,13,36,17.90
2016,04,09,13,37,18.00
2016,04,09,13,38,18.10
2016,04,09,13,39,18.20
2016,04,09,13,40,18.20
2016,04,09,13,41,18.20
2016,04,09,13,42,18.40
2016,04,09,13,43,18.40
2016,04,09,13,44,18.40
2016,04,09,13,45,18.40
2016,04,09,13,46,18.40
2016,04,09,13,47,18.30
2016,04,09,13,48,18.40
2016,04,09,13,49,18.40
2016,04,09,13,50,18.50
2016,04,09,13,51,18.50
2016,04,09,13,52,18.50
2016,04,09,13,53,18.60
2016,04,09,13,54,18.60
2016,04,09,13,55,18.50
2016,04,09,13,56,18.40
2016,04,09,13,57,18.40
2016,04,09,13,58,18.50
2016,04,09,13,59,18.40
2016,04,09,14,00,18.40
2016,04,09,14,01,18.50
2016,04,09,14,02,18.50
2016,04,09,14,03,18.50
2016,04,09,14,04,18.50
2016,04,09,14,05,18.50
2016,04,09,14,06,18.40
2016,04,09,14,07,18.40
2016,04,09,14,08,18.50
2016,04,09,14,09,18.50
2016,04,09,14,10,18.60
2016,04,09,14,11,18.70
2016,04,09,14,12,18.60
2016,04,09,14,13,18.70
2016,04,09,14,14,18.70
2016,04,09,14,15,18.60
2016,04,09,14,16,18.50
2016,04,09,14,17,18.40
2016,04,09,14,18,18.50
2016,04,09,14,19,18.50
2016,04,09,14,20,18.60
2016,04,09,14,21,18.70
2016,04,09,14,22,18.80
2016,04,09,14,23,18.80
2016,04,09,14,24,18.80
2016,04,09,14,25,18.80
2016,04,09,14,26,18.70
2016,04,09,14,27,18.70
2016,04,09,14,28,18.80
2016,04,09,14,29,18.80
2016,04,09,14,30,18.80
2016,04,09,14,31,18.90
2016,04,09,14,32,18.90
2016,04,09,14,33,18.90
2016,04,09,14,34,19.00
2016,04,09,14,35,19.00
2016,04,09,14,36,19.10
2016,04,09,14,37,19.10
2016,04,09,14,38,19.20
2016,04,09,14,39,19.30
2016,04,09,14,40,19.40
2016,04,09,14,41,19.50
2016,04,09,14,42,19.50
2016,04,09,14,43,19.60
2016,04,09,14,44,19.70
2016,04,09,14,45,19.70
2016,04,09,14,46,19.70
2016,04,09,14,47,19.60
2016,04,09,14,48,19.60
2016,04,09,14,49,19.50
2016,04,09,14,50,19.40
2016,04,09,14,51,19.40
2016,04,09,14,52,19.30
2016,04,09,14,53,19.30
2016,04,09,14,54,19.30
2016,04,09,14,55,19.30
2016,04,09,14,56,19.40
2016,04,09,14,57,19.40
2016,04,09,14,58,19.50
2016,04,09,14,59,19.60
2016,04,09,15,00,19.70
2016,04,09,15,01,19.70
2016,04,09,15,02,19.70
2016,04,09,15,03,19.70
2016,04,09,15,04,19.60
2016,04,09,15,05,19.60
2016,04,09,15,06,19.60
2016,04,09,15,07,19.60
2016,04,09,15,08,19.60
2016,04,09,15,09,19.60
2016,04,09,15,10,19.60
2016,04,09,15,11,19.60
2016,04,09,15,12,19.60
2016,04,09,15,13,19.70
2016,04,09,15,14,19.70
2016,04,09,15,15,19.80
2016,04,09,15,16,19.80
2016,04,09,15,17,19.80
2016,04,09,15,18,19.80
2016,04,09,15,19,19.80
2016,04,09,15,20,19.70
2016,04,09,15,21,19.70
2016,04,09,15,22,19.70
2016,04,09,15,23,19.70
2016,04,09,15,24,19.70
2016,04,09,15,25,19.70
2016,04,09,15,26,19.70
2016,04,09,15,27,19.60
2016,04,09,15,28,19.50
2016,04,09,15,29,19.40
2016,04,09,15,30,19.40
2016,04,09,15,31,19.40
2016,04,09,15,32,19.50
2016,04,09,15,33,19.50
2016,04,09,15,34,19.60
2016,04,09,15,35,19.70
2016,04,09,15,36,19.70
2016,04,09,15,37,19.70
2016,04,09,15,38,19.70
2016,04,09,15,39,19.70
2016,04,09,15,40,19.70
2016,04,09,15,41,19.70
2016,04,09,15,42,19.80
2016,04,09,15,43,19.80
2016,04,09,15,44,19.90
2016,04,09,15,45,20.00
2016,04,09,15,46,20.00
2016,04,09,15,47,19.90
2016,04,09,15,48,19.80
2016,04,09,15,49,19.80
2016,04,09,15,50,19.70
2016,04,09,15,51,19.70
2016,04,09,15,52,19.70
2016,04,09,15,53,19.70
2016,04,09,15,54,19.80
2016,04,09,15,55,19.80
2016,04,09,15,56,19.70
2016,04,09,15,57,19.70
2016,04,09,15,58,19.70
2016,04,09,15,59,19.70
2016,04,09,16,00,19.60
2016,04,09,16,01,19.60
2016,04,09,16,02,19.60
2016,04,09,16,03,19.60
2016,04,09,16,04,19.70
2016,04,09,16,05,19.70
2016,04,09,16,06,19.70
2016,04,09,16,07,19.70
2016,04,09,16,08,19.70
2016,04,09,16,09,19.70
2016,04,09,16,10,19.80
2016,04,09,16,11,19.70
2016,04,09,16,12,19.70
2016,04,09,16,13,19.80
2016,04,09,16,14,19.80
2016,04,09,16,15,19.80
2016,04,09,16,16,19.80
2016,04,09,16,17,19.80
2016,04,09,16,18,19.70
2016,04,09,16,19,19.70
2016,04,09,16,20,19.70
2016,04,09,16,21,19.70
2016,04,09,16,22,19.70
2016,04,09,16,23,19.80
2016,04,09,16,24,19.90
2016,04,09,16,25,19.90
2016,04,09,16,26,19.90
2016,04,09,16,27,19.90
2016,04,09,16,28,19.90
2016,04,09,16,29,19.90
2016,04,09,16,30,20.00
2016,04,09,16,31,20.00
2016,04,09,16,32,20.00
2016,04,09,16,33,20.00
2016,04,09,16,34,20.00
2016,04,09,16,35,19.90
2016,04,09,16,36,19.90
2016,04,09,16,37,19.90
2016,04,09,16,38,19.90
2016,04,09,16,39,20.00
2016,04,09,16,40,20.00
2016,04,09,16,41,20.10
2016,04,09,16,42,20.10
2016,04,09,16,43,20.20
2016,04,09,16,44,20.40
2016,04,09,16,45,20.40
2016,04,09,16,46,20.40
2016,04,09,16,47,20.40
2016,04,09,16,48,20.40
2016,04,09,16,49,20.30
2016,04,09,16,50,20.30
2016,04,09,16,51,20.30
2016,04,09,16,52,20.20
2016,04,09,16,53,20.10
2016,04,09,16,54,20.10
2016,04,09,16,55,20.10
2016,04,09,16,56,20.10
2016,04,09,16,57,20.10
2016,04,09,16,58,20.00
2016,04,09,16,59,20.00
2016,04,09,17,00,20.00
2016,04,09,17,01,19.90
2016,04,09,17,02,19.90
2016,04,09,17,03,19.90
2016,04,09,17,04,20.00
2016,04,09,17,05,20.00
2016,04,09,17,06,20.10
2016,04,09,17,07,20.00
2016,04,09,17,08,19.90
2016,04,09,17,09,19.80
2016,04,09,17,10,19.70
2016,04,09,17,11,19.70
2016,04,09,17,12,19.70
2016,04,09,17,13,19.70
2016,04,09,17,14,19.70
2016,04,09,17,15,19.70
2016,04,09,17,16,19.70
2016,04,09,17,17,19.80
2016,04,09,17,18,19.80
2016,04,09,17,19,19.90
2016,04,09,17,20,20.00
2016,04,09,17,21,20.00
2016,04,09,17,22,20.00
2016,04,09,17,23,20.00
2016,04,09,17,24,20.00
2016,04,09,17,25,20.00
2016,04,09,17,26,20.00
2016,04,09,17,27,20.00
2016,04,09,17,28,20.00
2016,04,09,17,29,19.80
2016,04,09,17,30,19.80
2016,04,09,17,31,19.80
2016,04,09,17,32,19.80
2016,04,09,17,33,19.90
2016,04,09,17,34,19.90
2016,04,09,17,35,19.90
2016,04,09,17,36,19.90
2016,04,09,17,37,19.90
2016,04,09,17,38,19.90
2016,04,09,17,39,19.90
2016,04,09,17,40,19.80
2016,04,09,17,41,19.80
2016,04,09,17,42,19.80
2016,04,09,17,43,19.80
2016,04,09,17,44,19.70